Hebron, NE

9:49 PM CDT on June 27, 2017 (GMT -0500)
Hebron Municipal

Weather History for KHJH - June, 2013

Change the Weather History Date:

Saturday, June 29, 2013

  Actual Average Record
Temperature  
Mean Temperature 74 °F -  
Max Temperature 85 °F 91 °F 100 °F (1963)
Min Temperature 63 °F 66 °F 53 °F (1950)
Cooling Degree Days 9    
Growing Degree Days 24 (Base 50)    
Moisture  
Dew Point 52 °F    
Average Humidity 49    
Maximum Humidity 77    
Minimum Humidity 22    
Precipitation  
Precipitation 0.00 in - - ()
Sea Level Pressure  
Sea Level Pressure 29.99 in    
Wind  
Wind Speed 9 mph (NNW)    
Max Wind Speed 23 mph    
Max Gust Speed 32 mph    
Visibility 10 miles    
Events      
Averages and records for this station are not official NWS values.
T = Trace of Precipitation, MM = Missing Value Source: NWS Daily Summary

Daily Weather History Graph

Daily Weather History Graph

Search for Another Location

Airport or City:

Trip Planner

Search our weather history database for the weather conditions in past years. The results will help you decide how hot, cold, wet, or windy it might be!

Date:

Astronomy

Jun. 29, 2013 Rise Set
Actual Time 6:03 AM CDT 9:03 PM CDT
Civil Twilight 5:31 AM CDT 9:36 PM CDT
Nautical Twilight 4:49 AM CDT 10:18 PM CDT
Astronomical Twilight 4:00 AM CDT 11:06 PM CDT
Moon 12:33 AM CDT (6/29) 1:17 PM CDT (6/29)
Length of Visible Light 16h 05m
Length of Day
14h 59m
Waning Gibbous, 55% of the Moon is Illuminated
Jun 29
Waning Gibbous
Jun 29
Last Quarter
Jul 8
New
Jul 15
First Quarter
Jul 22
Full

Hourly Weather History & Observations

Time (CDT) Temp. Heat Index Dew Point Humidity Pressure Visibility Wind Dir Wind Speed Gust Speed Precip Events Conditions
12:15 AM 69.4 °F - 56.1 °F 62% 30.00 in 10.0 mi NNW 5.8 mph - N/A   Clear
12:35 AM 68.0 °F - 56.7 °F 67% 30.00 in 10.0 mi NW 4.6 mph - N/A   Clear
12:55 AM 68.0 °F - 56.5 °F 67% 29.99 in 10.0 mi NW 5.8 mph - N/A   Clear
1:15 AM 67.6 °F - 56.8 °F 68% 30.00 in 10.0 mi NW 4.6 mph - N/A   Clear
1:35 AM 67.6 °F - 56.8 °F 68% 30.00 in 10.0 mi NW 4.6 mph - N/A   Clear
1:55 AM 67.1 °F - 57.2 °F 70% 30.00 in 10.0 mi NW 4.6 mph - N/A   Clear
2:15 AM 66.9 °F - 57.2 °F 71% 30.00 in 10.0 mi NW 4.6 mph - N/A   Clear
2:35 AM 66.2 °F - 57.2 °F 73% 30.00 in 10.0 mi NW 4.6 mph - N/A   Clear
2:55 AM 66.6 °F - 57.2 °F 72% 30.00 in 10.0 mi WNW 5.8 mph - N/A   Clear
3:15 AM 66.6 °F - 56.7 °F 70% 30.00 in 10.0 mi WNW 5.8 mph - N/A   Clear
3:35 AM 65.7 °F - 56.8 °F 73% 29.99 in 10.0 mi NW 4.6 mph - N/A   Clear
3:55 AM 65.1 °F - 57.2 °F 75% 29.99 in 10.0 mi NW 5.8 mph - N/A   Clear
4:15 AM 64.6 °F - 57.2 °F 77% 29.99 in 10.0 mi WNW 4.6 mph - N/A   Clear
4:35 AM 64.8 °F - 56.8 °F 75% 29.99 in 10.0 mi NW 5.8 mph - N/A   Clear
4:55 AM 64.4 °F - 56.8 °F 76% 29.99 in 10.0 mi NW 6.9 mph - N/A   Clear
5:15 AM 64.0 °F - 56.7 °F 77% 30.00 in 10.0 mi NW 6.9 mph - N/A   Clear
5:35 AM 64.4 °F - 56.5 °F 75% 30.00 in 10.0 mi NW 6.9 mph - N/A   Clear
5:55 AM 64.4 °F - 56.5 °F 75% 30.00 in 10.0 mi NW 5.8 mph - N/A   Clear
6:15 AM 63.7 °F - 56.3 °F 77% 30.00 in 10.0 mi NW 8.1 mph - N/A   Clear
6:35 AM 64.9 °F - 56.3 °F 74% 30.00 in 10.0 mi NW 6.9 mph - N/A   Clear
6:55 AM 65.7 °F - 56.3 °F 72% 30.00 in 10.0 mi NW 9.2 mph - N/A   Clear
7:15 AM 66.9 °F - 56.5 °F 69% 30.00 in 10.0 mi NW 9.2 mph - N/A   Clear
7:35 AM 68.0 °F - 57.0 °F 68% 30.00 in 10.0 mi NNW 6.9 mph - N/A   Clear
7:55 AM 69.4 °F - 57.2 °F 65% 30.00 in 10.0 mi NW 8.1 mph - N/A   Clear
8:15 AM 71.6 °F - 56.7 °F 59% 30.00 in 10.0 mi NNW 9.2 mph - N/A   Clear
8:35 AM 73.6 °F - 56.3 °F 55% 30.01 in 10.0 mi NNW 10.4 mph - N/A   Clear
8:55 AM 75.4 °F - 55.2 °F 49% 30.01 in 10.0 mi North 11.5 mph 17.3 mph N/A   Clear
9:15 AM 76.8 °F - 54.9 °F 46% 30.02 in 10.0 mi North 10.4 mph 19.6 mph N/A   Clear
9:35 AM 77.2 °F - 53.8 °F 44% 30.02 in 10.0 mi NNW 15.0 mph 18.4 mph N/A   Clear
9:55 AM 78.4 °F - 53.8 °F 42% 30.01 in 10.0 mi North 13.8 mph 24.2 mph N/A   Clear
10:15 AM 79.0 °F - 53.1 °F 40% 30.01 in 10.0 mi North 13.8 mph 20.7 mph N/A   Clear
10:35 AM 79.9 °F - 51.4 °F 37% 30.01 in 10.0 mi North 12.7 mph 21.9 mph N/A   Scattered Clouds
10:55 AM 81.0 °F 80.4 °F 53.1 °F 38% 30.01 in 10.0 mi NNW 12.7 mph 18.4 mph N/A   Scattered Clouds
11:15 AM 80.8 °F - 51.3 °F 36% 30.01 in 10.0 mi North 13.8 mph 23.0 mph N/A   Clear
11:35 AM 82.0 °F - 50.9 °F 34% 30.01 in 10.0 mi North 18.4 mph 24.2 mph N/A   Clear
11:55 AM 82.4 °F - 50.2 °F 33% 30.01 in 10.0 mi North 17.3 mph 26.5 mph N/A   Scattered Clouds
12:15 PM 82.2 °F - 50.4 °F 33% 30.00 in 10.0 mi NNW 16.1 mph 24.2 mph N/A   Scattered Clouds
12:35 PM 82.4 °F - 49.1 °F 31% 30.00 in 10.0 mi NNW 16.1 mph 32.2 mph N/A   Mostly Cloudy
12:55 PM 83.7 °F - 46.0 °F 27% 30.00 in 10.0 mi North 21.9 mph 29.9 mph N/A   Scattered Clouds
1:15 PM 83.7 °F - 46.4 °F 27% 30.00 in 10.0 mi NNW 19.6 mph 27.6 mph N/A   Scattered Clouds
1:35 PM 83.7 °F - 47.7 °F 28% 29.99 in 10.0 mi North 17.3 mph 25.3 mph N/A   Scattered Clouds
1:55 PM 83.8 °F - 47.1 °F 28% 29.99 in 10.0 mi North 19.6 mph 27.6 mph N/A   Scattered Clouds
2:15 PM 84.9 °F - 45.3 °F 25% 29.99 in 10.0 mi North 21.9 mph 27.6 mph N/A   Scattered Clouds
2:35 PM 84.6 °F - 42.6 °F 23% 29.98 in 10.0 mi North 20.7 mph 31.1 mph N/A   Clear
2:55 PM 85.3 °F - 42.6 °F 22% 29.97 in 10.0 mi NNW 16.1 mph 27.6 mph N/A   Scattered Clouds
3:15 PM 85.5 °F - 44.8 °F 24% 29.97 in 10.0 mi NNW 17.3 mph 27.6 mph N/A   Scattered Clouds
3:35 PM 85.5 °F - 45.0 °F 24% 29.97 in 10.0 mi North 21.9 mph 29.9 mph N/A   Scattered Clouds
3:55 PM 84.9 °F - 43.5 °F 23% 29.97 in 10.0 mi North 23.0 mph 31.1 mph N/A   Scattered Clouds
4:15 PM 85.1 °F - 43.5 °F 23% 29.97 in 10.0 mi North 19.6 mph 29.9 mph N/A   Scattered Clouds
4:35 PM 84.2 °F - 43.7 °F 24% 29.96 in 10.0 mi North 21.9 mph 25.3 mph N/A   Clear
4:55 PM 83.8 °F - 44.6 °F 25% 29.96 in 10.0 mi North 17.3 mph 25.3 mph N/A   Clear
5:15 PM 84.9 °F - 43.2 °F 23% 29.95 in 10.0 mi North 15.0 mph 26.5 mph N/A   Clear
5:35 PM 84.9 °F - 45.0 °F 25% 29.95 in 10.0 mi NNW 19.6 mph 25.3 mph N/A   Clear
5:55 PM 84.2 °F - 44.8 °F 25% 29.95 in 10.0 mi North 20.7 mph 27.6 mph N/A   Scattered Clouds
6:15 PM 83.8 °F - 43.9 °F 25% 29.94 in 10.0 mi North 19.6 mph 27.6 mph N/A   Clear
6:35 PM 83.3 °F - 48.0 °F 29% 29.94 in 10.0 mi North 16.1 mph 27.6 mph N/A   Clear
6:55 PM 82.4 °F - 46.9 °F 29% 29.95 in 10.0 mi North 17.3 mph 27.6 mph N/A   Clear
7:15 PM 82.4 °F - 47.5 °F 29% 29.95 in 10.0 mi North 15.0 mph 21.9 mph N/A   Scattered Clouds
7:35 PM 81.1 °F - 50.4 °F 34% 29.95 in 10.0 mi NNE 16.1 mph 23.0 mph N/A   Scattered Clouds
7:55 PM 80.1 °F - 50.5 °F 36% 29.96 in 10.0 mi NNE 12.7 mph 28.8 mph N/A   Mostly Cloudy
8:15 PM 78.8 °F - 50.2 °F 37% 29.96 in 10.0 mi North 12.7 mph 18.4 mph N/A   Scattered Clouds
8:35 PM 77.9 °F - 50.9 °F 39% 29.96 in 10.0 mi North 5.8 mph - N/A   Clear
8:55 PM 76.8 °F - 51.8 °F 42% 29.96 in 10.0 mi North 5.8 mph - N/A   Clear
9:15 PM 74.8 °F - 52.7 °F 46% 29.97 in 10.0 mi North 6.9 mph - N/A   Clear
9:35 PM 74.3 °F - 53.2 °F 48% 29.98 in 10.0 mi North 6.9 mph - N/A   Clear
9:55 PM 73.4 °F - 54.1 °F 51% 29.99 in 10.0 mi North 6.9 mph - N/A   Clear
10:15 PM 70.9 °F - 54.9 °F 57% 29.99 in 10.0 mi NNW 4.6 mph - N/A   Clear
10:35 PM 68.9 °F - 55.4 °F 62% 30.00 in 10.0 mi North 4.6 mph - N/A   Clear
10:55 PM 70.2 °F - 55.2 °F 59% 30.00 in 10.0 mi North 6.9 mph - N/A   Clear
11:15 PM 69.6 °F - 55.4 °F 61% 30.00 in 10.0 mi North 4.6 mph - N/A   Clear
11:35 PM 67.1 °F - 55.6 °F 66% 30.00 in 10.0 mi NNW 3.5 mph - N/A   Clear
11:55 PM 66.2 °F - 55.9 °F 69% 30.00 in 10.0 mi NNW 5.8 mph - N/A   Clear